Park Rapids, MN

2:49 PM CDT on September 19, 2017 (GMT -0500)
Park Rapids Municipal

Weather History for KPKD - July, 2013

Change the Weather History Date:

Thursday, July 4, 2013

  Actual Average Record
Temperature  
Mean Temperature 73 °F -  
Max Temperature 87 °F 80 °F 98 °F (1949)
Min Temperature 59 °F 54 °F 35 °F (1972)
Cooling Degree Days 8    
Growing Degree Days 23 (Base 50)    
Moisture  
Dew Point 56 °F    
Average Humidity 56    
Maximum Humidity 81    
Minimum Humidity 36    
Precipitation  
Precipitation 0.00 in - - ()
Sea Level Pressure  
Sea Level Pressure 29.84 in    
Wind  
Wind Speed 9 mph (SSE)    
Max Wind Speed 20 mph    
Max Gust Speed 28 mph    
Visibility 10 miles    
Events      
Averages and records for this station are not official NWS values.
T = Trace of Precipitation, MM = Missing Value Source: NWS Daily Summary

Daily Weather History Graph

Daily Weather History Graph

Search for Another Location

Airport or City:

Trip Planner

Search our weather history database for the weather conditions in past years. The results will help you decide how hot, cold, wet, or windy it might be!

Date:

Astronomy

Jul. 04, 2013 Rise Set
Actual Time 5:31 AM CDT 9:17 PM CDT
Civil Twilight 4:52 AM CDT 9:56 PM CDT
Nautical Twilight 3:59 AM CDT 10:49 PM CDT
Astronomical Twilight 2:43 AM CDT 12:04 AM CDT
Moon 2:54 AM CDT (7/4) 6:18 PM CDT (7/4)
Length of Visible Light 17h 03m
Length of Day
15h 45m
Waning Crescent, 11% of the Moon is Illuminated
Jul 4
Waning Crescent
Jul 8
New
Jul 15
First Quarter
Jul 22
Full
Jul 29
Last Quarter

Hourly Weather History & Observations

Time (CDT) Temp. Heat Index Dew Point Humidity Pressure Visibility Wind Dir Wind Speed Gust Speed Precip Events Conditions
12:53 AM 64.0 °F - 55.0 °F 73% 29.92 in 10.0 mi SSE 4.6 mph - N/A   Clear
1:53 AM 62.1 °F - 55.0 °F 78% 29.91 in 10.0 mi SSE 5.8 mph - N/A   Clear
2:53 AM 62.1 °F - 55.0 °F 78% 29.91 in 10.0 mi SSE 4.6 mph - N/A   Clear
3:53 AM 61.0 °F - 54.0 °F 78% 29.91 in 10.0 mi SE 5.8 mph - N/A   Clear
4:53 AM 60.1 °F - 54.0 °F 80% 29.90 in 10.0 mi SE 5.8 mph - N/A   Clear
5:53 AM 59.0 °F - 53.1 °F 81% 29.91 in 10.0 mi SSE 4.6 mph - N/A   Clear
6:53 AM 60.1 °F - 54.0 °F 80% 29.90 in 10.0 mi SSE 3.5 mph - N/A   Clear
7:53 AM 68.0 °F - 54.0 °F 61% 29.88 in 10.0 mi SSE 9.2 mph - N/A   Clear
8:53 AM 70.0 °F - 55.0 °F 59% 29.87 in 10.0 mi South 10.4 mph - N/A   Clear
9:53 AM 73.9 °F - 57.0 °F 55% 29.86 in 10.0 mi South 9.2 mph - N/A   Clear
10:53 AM 78.1 °F - 59.0 °F 52% 29.84 in 10.0 mi South 11.5 mph - N/A   Clear
11:53 AM 82.9 °F 82.8 °F 59.0 °F 44% 29.83 in 10.0 mi South 13.8 mph 19.6 mph N/A   Clear
12:53 PM 84.9 °F 83.9 °F 57.0 °F 38% 29.81 in 10.0 mi South 17.3 mph 25.3 mph N/A   Clear
1:53 PM 86.0 °F 84.7 °F 55.9 °F 36% 29.80 in 10.0 mi SSW 19.6 mph 27.6 mph N/A   Clear
2:53 PM 87.1 °F 85.9 °F 57.0 °F 36% 29.80 in 10.0 mi South 15.0 mph - N/A   Clear
3:53 PM 84.9 °F 83.7 °F 55.9 °F 37% 29.80 in 10.0 mi South 18.4 mph 23.0 mph N/A   Clear
4:53 PM 84.9 °F 83.7 °F 55.9 °F 37% 29.80 in 10.0 mi South 17.3 mph 20.7 mph N/A   Partly Cloudy
5:53 PM 86.0 °F 84.7 °F 55.9 °F 36% 29.79 in 10.0 mi South 12.7 mph - N/A   Clear
6:53 PM 84.0 °F 83.5 °F 57.9 °F 41% 29.78 in 10.0 mi South 11.5 mph - N/A   Partly Cloudy
7:53 PM 82.9 °F 82.8 °F 59.0 °F 44% 29.77 in 10.0 mi SSE 11.5 mph - N/A   Clear
8:53 PM 79.0 °F - 59.0 °F 50% 29.77 in 10.0 mi SSE 9.2 mph - N/A   Clear
9:53 PM 75.0 °F - 59.0 °F 57% 29.78 in 10.0 mi SE 9.2 mph - N/A   Clear
10:53 PM 73.0 °F - 57.9 °F 59% 29.78 in 10.0 mi SSE 9.2 mph - N/A   Clear
11:53 PM 73.0 °F - 57.9 °F 59% 29.77 in 10.0 mi South 11.5 mph - N/A   Clear